Regional Weather Roundup
Issued by NWS

Home | Current Version | Previous Version | Graphics & Text | Print | Product List | Glossary On
Versions: 1 2 3 4 5 6 7 8 9 10 11 12 13 14 15 16 17 18 19 20 21 22 23 24 25 26 27 28 29 30 31 32 33 34 35 36 37 38 39 40 41 42 43 44 45 46 47 48 49 50
000
ASUS43 KBIS 270110
RWRND

NORTH DAKOTA REGIONAL WEATHER ROUNDUP
NATIONAL WEATHER SERVICE BISMARCK ND
800 PM CDT MON SEP 26 2016

NOTE: "FAIR" INDICATES FEW OR NO CLOUDS BELOW 12,000 FEET WITH NO
SIGNIFICANT WEATHER AND/OR OBSTRUCTIONS TO VISIBILITY.


NDZ001>003-009>011-017-270200-
NORTHWEST NORTH DAKOTA

CITY           SKY/WX    TMP DP  RH WIND       PRES   REMARKS
WILLISTON      CLOUDY    58  42  55 W6        30.09F
MINOT          CLEAR     57  37  47 W10       30.05F
MINOT AFB      CLEAR     52  38  59 NW8       30.04F
$$

NDZ018>021-031>035-040>046-270200-
SOUTHWEST NORTH DAKOTA

CITY           SKY/WX    TMP DP  RH WIND       PRES   REMARKS
BISMARCK       CLEAR     60  36  40 NW9       30.08F
DICKINSON      CLOUDY    55  39  54 W3        30.12F
GARRISON         N/A     52  37  56 W3        30.07F
HETTINGER ARPT CLOUDY    54  39  57 NW6       30.16F
$$

NDZ004>008-012>016-024-026-027-054-270200-
NORTHEAST NORTH DAKOTA

CITY           SKY/WX    TMP DP  RH WIND       PRES   REMARKS
GRAND FORKS    CLEAR     55  37  50 NW10      29.92S
GRND FRKS AFB  CLEAR     53  35  50 NW7       29.93S
DEVILS LAKE    CLEAR     54  34  46 NW10      29.99
$$

NDZ022-023-025-028>030-036>039-047>053-270200-
SOUTHEAST NORTH DAKOTA

CITY           SKY/WX    TMP DP  RH WIND       PRES   REMARKS
FARGO          CLEAR     57  29  34 W8        29.94R
JAMESTOWN      CLEAR     54  36  50 NW10      30.00S
$$





USA.gov is the U.S. government's official web portal to all federal, state and local government web resources and services.